QPF
0.00 0.00 0.00 0.00 0.00 0.00 0.00 0.00 0.00 0.00 0.00 0.01 0.01 0.02 0.01 0.01 0.01 0.01 0.01 0.00 0.00 0.00 0.00 0.00 0.00 0.00 0.00 0.00 0.00 0.00 0.00 0.00 0.00 0.01 0.01 0.01 0.01 0.02 0.00 0.00 0.00 0.00 0.01
0.00 0.00 0.00 0.00 0.00 0.00 0.00 0.00 0.00 0.00 0.00 0.01 0.02 0.02 0.02 0.02 0.01 0.01 0.01 0.00 0.00 0.00 0.00 0.00 0.00 0.00 0.00 0.00 0.00 0.00 0.00 0.00 0.00 0.01 0.00 0.00 0.00 0.01 0.00 0.00 0.00 0.00 0.01
0.00 0.01 0.00 0.00 0.00 0.00 0.00 0.00 0.00 0.00 0.00 0.01 0.01 0.02 0.02 0.02 0.01 0.01 0.01 0.00 0.00 0.00 0.00 0.00 0.00 0.00 0.00 0.00 0.00 0.00 0.00 0.00 0.00 0.00 0.00 0.00 0.00 0.01 0.01 0.01 0.01 0.01 0.00
0.01 0.01 0.00 0.00 0.00 0.00 0.00 0.00 0.00 0.00 0.00 0.01 0.01 0.02 0.02 0.02 0.01 0.01 0.01 0.00 0.00 0.00 0.00 0.00 0.00 0.00 0.00 0.00 0.00 0.00 0.00 0.00 0.00 0.00 0.00 0.00 0.00 0.01 0.02 0.02 0.01 0.01 0.01
0.01 0.01 0.01 0.00 0.00 0.00 0.00 0.00 0.00 0.00 0.01 0.02 0.02 0.02 0.02 0.01 0.01 0.01 0.00 0.00 0.00 0.00 0.00 0.00 0.00 0.00 0.00 0.00 0.00 0.00 0.00 0.00 0.00 0.00 0.00 0.00 0.00 0.00 0.00 0.01 0.01 0.01 0.01
0.00 0.01 0.01 0.01 0.01 0.01 0.01 0.01 0.01 0.02 0.02 0.02 0.01 0.01 0.01 0.01 0.00 0.00 0.00 0.00 0.00 0.00 0.00 0.00 0.00 0.00 0.00 0.00 0.00 0.00 0.00 0.00 0.00 0.00 0.00 0.00 0.00 0.00 0.00 0.01 0.01 0.01 0.01
0.00 0.00 0.00 0.01 0.01 0.01 0.01 0.01 0.01 0.01 0.01 0.01 0.01 0.01 0.00 0.00 0.00 0.00 0.00 0.00 0.00 0.00 0.00 0.00 0.00 0.00 0.00 0.00 0.00 0.00 0.00 0.00 0.00 0.00 0.00 0.00 0.00 0.00 0.00 0.00 0.00 0.01 0.01
0.00 0.00 0.00 0.00 0.00 0.01 0.01 0.01 0.01 0.01 0.01 0.01 0.01 0.00 0.00 0.00 0.00 0.00 0.00 0.00 0.00 0.00 0.00 0.00 0.00 0.00 0.00 0.00 0.00 0.00 0.00 0.00 0.00 0.00 0.00 0.00 0.00 0.00 0.00 0.00 0.00 0.00 0.00
0.00 0.00 0.00 0.00 0.00 0.00 0.00 0.00 0.00 0.00 0.01 0.01 0.00 0.00 0.00 0.00 0.00 0.00 0.00 0.00 0.00 0.00 0.00 0.00 0.00 0.00 0.00 0.00 0.00 0.00 0.00 0.00 0.00 0.00 0.00 0.00 0.00 0.00 0.00 0.01 0.01 0.01 0.00
0.00 0.00 0.00 0.00 0.00 0.00 0.00 0.00 0.00 0.00 0.00 0.00 0.00 0.00 0.00 0.00 0.00 0.00 0.00 0.00 0.00 0.00 0.00 0.00 0.00 0.00 0.00 0.00 0.00 0.00 0.00 0.00 0.00 0.00 0.00 0.00 0.00 0.00 0.00 0.00 0.01 0.01 0.01
0.00 0.00 0.00 0.00 0.00 0.00 0.00 0.00 0.00 0.00 0.00 0.00 0.00 0.00 0.00 0.00 0.00 0.00 0.00 0.00 0.00 0.00 0.00 0.00 0.00 0.00 0.00 0.00 0.00 0.00 0.00 0.00 0.00 0.00 0.00 0.00 0.00 0.00 0.00 0.00 0.00 0.01 0.01
0.00 0.00 0.00 0.00 0.00 0.00 0.00 0.00 0.00 0.00 0.00 0.00 0.00 0.00 0.00 0.00 0.00 0.00 0.00 0.00 0.00 0.00 0.00 0.00 0.00 0.00 0.00 0.00 0.00 0.00 0.00 0.00 0.00 0.00 0.00 0.00 0.00 0.00 0.00 0.00 0.00 0.01 0.01
0.00 0.00 0.00 0.00 0.00 0.00 0.00 0.00 0.00 0.00 0.00 0.00 0.00 0.00 0.00 0.00 0.00 0.00 0.00 0.00 0.00 0.00 0.00 0.00 0.00 0.00 0.00 0.00 0.00 0.00 0.00 0.00 0.00 0.00 0.00 0.00 0.00 0.00 0.00 0.00 0.00 0.01 0.01
0.00 0.00 0.00 0.00 0.00 0.00 0.00 0.00 0.00 0.00 0.00 0.00 0.00 0.00 0.00 0.00 0.00 0.00 0.00 0.00 0.00 0.00 0.00 0.00 0.00 0.00 0.00 0.00 0.00 0.00 0.00 0.00 0.00 0.00 0.00 0.00 0.00 0.01 0.00 0.00 0.00 0.00 0.01
0.00 0.00 0.00 0.00 0.00 0.00 0.00 0.00 0.00 0.00 0.00 0.00 0.00 0.00 0.00 0.00 0.00 0.00 0.00 0.00 0.00 0.00 0.00 0.00 0.00 0.00 0.00 0.00 0.00 0.00 0.00 0.00 0.00 0.00 0.00 0.00 0.00 0.00 0.00 0.00 0.00 0.00 0.00
0.00 0.00 0.00 0.00 0.00 0.00 0.00 0.00 0.00 0.00 0.00 0.00 0.00 0.00 0.00 0.00 0.00 0.00 0.00 0.00 0.00 0.00 0.00 0.00 0.00 0.00 0.00 0.00 0.00 0.00 0.00 0.00 0.00 0.00 0.00 0.00 0.00 0.00 0.00 0.00 0.00 0.00 0.00
0.00 0.00 0.00 0.00 0.00 0.00 0.00 0.00 0.00 0.00 0.00 0.00 0.00 0.00 0.00 0.00 0.00 0.00 0.00 0.00 0.00 0.00 0.00 0.00 0.00 0.00 0.00 0.00 0.00 0.00 0.00 0.00 0.00 0.00 0.00 0.00 0.00 0.00 0.00 0.00 0.00 0.01 0.01
0.00 0.00 0.00 0.00 0.00 0.00 0.00 0.00 0.00 0.00 0.00 0.00 0.00 0.00 0.00 0.00 0.00 0.00 0.00 0.00 0.00 0.00 0.00 0.00 0.00 0.00 0.00 0.00 0.00 0.00 0.00 0.00 0.00 0.00 0.00 0.00 0.00 0.00 0.01 0.01 0.01 0.01 0.01
0.00 0.00 0.00 0.00 0.00 0.00 0.00 0.00 0.00 0.00 0.00 0.00 0.00 0.00 0.00 0.00 0.00 0.00 0.00 0.00 0.00 0.01 0.01 0.00 0.00 0.00 0.00 0.00 0.00 0.00 0.00 0.00 0.00 0.00 0.00 0.00 0.00 0.01 0.01 0.01 0.01 0.02 0.02
0.00 0.00 0.00 0.00 0.00 0.00 0.00 0.00 0.00 0.00 0.00 0.00 0.00 0.00 0.00 0.00 0.00 0.00 0.00 0.01 0.01 0.01 0.00 0.00 0.00 0.00 0.00 0.00 0.00 0.00 0.00 0.00 0.00 0.00 0.00 0.00 0.00 0.01 0.01 0.01 0.01 0.02 0.02
0.00 0.00 0.00 0.00 0.00 0.00 0.00 0.00 0.00 0.00 0.00 0.00 0.00 0.00 0.00 0.01 0.01 0.01 0.01 0.01 0.00 0.00 0.00 0.00 0.00 0.00 0.00 0.00 0.00 0.00 0.00 0.00 0.00 0.00 0.00 0.00 0.01 0.01 0.01 0.01 0.02 0.02 0.03
0.00 0.00 0.00 0.00 0.00 0.00 0.00 0.00 0.00 0.00 0.00 0.00 0.00 0.00 0.00 0.01 0.01 0.01 0.00 0.00 0.00 0.00 0.00 0.00 0.00 0.00 0.00 0.00 0.00 0.00 0.00 0.00 0.01 0.01 0.01 0.01 0.01 0.01 0.01 0.01 0.02 0.02 0.02
0.00 0.00 0.00 0.00 0.00 0.00 0.00 0.00 0.00 0.00 0.00 0.00 0.00 0.00 0.00 0.00 0.00 0.00 0.00 0.00 0.00 0.00 0.00 0.00 0.00 0.00 0.00 0.00 0.01 0.01 0.01 0.01 0.01 0.01 0.01 0.02 0.01 0.01 0.01 0.01 0.02 0.02 0.02
0.00 0.00 0.00 0.00 0.00 0.00 0.00 0.00 0.00 0.00 0.01 0.01 0.01 0.01 0.01 0.01 0.01 0.01 0.01 0.00 0.00 0.00 0.00 0.00 0.01 0.01 0.01 0.01 0.01 0.01 0.01 0.01 0.01 0.01 0.01 0.02 0.02 0.02 0.02 0.02 0.02 0.02 0.02
0.00 0.00 0.00 0.00 0.00 0.00 0.01 0.01 0.01 0.01 0.02 0.02 0.02 0.02 0.02 0.02 0.01 0.01 0.01 0.00 0.00 0.00 0.00 0.00 0.01 0.01 0.01 0.01 0.01 0.01 0.01 0.01 0.01 0.01 0.01 0.02 0.02 0.02 0.03 0.03 0.03 0.03 0.03
0.00 0.00 0.01 0.01 0.01 0.01 0.01 0.01 0.01 0.01 0.01 0.01 0.02 0.02 0.01 0.01 0.01 0.01 0.01 0.00 0.00 0.00 0.00 0.01 0.01 0.01 0.01 0.01 0.01 0.02 0.02 0.02 0.01 0.02 0.02 0.02 0.03 0.04 0.04 0.04 0.04 0.04 0.04
MSLP
1017.60 1017.78 1018.02 1018.30 1018.62 1018.95 1019.29 1019.60 1019.90 1020.18 1020.42 1020.64 1020.83 1020.98 1021.11 1021.22 1021.30 1021.37 1021.45 1021.53 1021.63 1021.74 1021.88 1022.04 1022.22 1022.40 1022.58 1022.75 1022.90 1023.04 1023.15 1023.24 1023.28 1023.29 1023.25 1023.16 1023.02 1022.82 1022.59 1022.33 1022.05 1021.78 1021.52
1017.46 1017.67 1017.93 1018.23 1018.55 1018.88 1019.21 1019.52 1019.82 1020.09 1020.34 1020.56 1020.76 1020.93 1021.08 1021.20 1021.30 1021.39 1021.48 1021.57 1021.67 1021.79 1021.92 1022.06 1022.21 1022.37 1022.53 1022.70 1022.87 1023.04 1023.20 1023.35 1023.47 1023.56 1023.59 1023.56 1023.46 1023.30 1023.06 1022.78 1022.47 1022.15 1021.84
1017.37 1017.62 1017.90 1018.21 1018.53 1018.84 1019.14 1019.43 1019.70 1019.95 1020.19 1020.41 1020.61 1020.78 1020.94 1021.08 1021.21 1021.32 1021.42 1021.53 1021.64 1021.75 1021.87 1022.01 1022.15 1022.30 1022.46 1022.64 1022.83 1023.04 1023.25 1023.47 1023.66 1023.82 1023.92 1023.94 1023.88 1023.73 1023.50 1023.20 1022.85 1022.49 1022.13
1017.34 1017.62 1017.92 1018.22 1018.51 1018.78 1019.04 1019.28 1019.50 1019.72 1019.93 1020.14 1020.33 1020.52 1020.69 1020.85 1020.99 1021.13 1021.25 1021.37 1021.49 1021.61 1021.73 1021.86 1022.00 1022.15 1022.32 1022.51 1022.73 1022.97 1023.23 1023.49 1023.74 1023.95 1024.10 1024.17 1024.14 1024.01 1023.79 1023.48 1023.12 1022.74 1022.35
1017.39 1017.67 1017.95 1018.22 1018.46 1018.68 1018.87 1019.04 1019.21 1019.38 1019.56 1019.74 1019.93 1020.12 1020.30 1020.48 1020.65 1020.80 1020.95 1021.09 1021.22 1021.35 1021.48 1021.61 1021.75 1021.90 1022.07 1022.28 1022.51 1022.77 1023.05 1023.34 1023.62 1023.86 1024.04 1024.14 1024.14 1024.04 1023.84 1023.56 1023.22 1022.85 1022.47
1017.53 1017.77 1018.00 1018.20 1018.36 1018.49 1018.61 1018.71 1018.82 1018.94 1019.08 1019.25 1019.42 1019.61 1019.80 1019.99 1020.17 1020.34 1020.50 1020.66 1020.80 1020.94 1021.08 1021.21 1021.36 1021.51 1021.68 1021.88 1022.11 1022.36 1022.64 1022.93 1023.21 1023.46 1023.66 1023.78 1023.81 1023.75 1023.60 1023.38 1023.09 1022.78 1022.46
1017.74 1017.90 1018.03 1018.13 1018.20 1018.24 1018.27 1018.30 1018.35 1018.43 1018.54 1018.68 1018.84 1019.02 1019.21 1019.40 1019.58 1019.76 1019.92 1020.08 1020.23 1020.38 1020.52 1020.66 1020.81 1020.96 1021.13 1021.31 1021.52 1021.74 1021.99 1022.25 1022.51 1022.75 1022.95 1023.09 1023.16 1023.15 1023.07 1022.93 1022.74 1022.52 1022.28
1018.01 1018.05 1018.06 1018.04 1018.00 1017.95 1017.89 1017.86 1017.86 1017.90 1017.98 1018.10 1018.24 1018.41 1018.58 1018.74 1018.90 1019.06 1019.21 1019.36 1019.50 1019.65 1019.80 1019.94 1020.09 1020.24 1020.40 1020.56 1020.73 1020.92 1021.13 1021.35 1021.57 1021.78 1021.97 1022.12 1022.23 1022.29 1022.29 1022.25 1022.18 1022.07 1021.95
1018.30 1018.21 1018.09 1017.95 1017.81 1017.67 1017.55 1017.46 1017.42 1017.43 1017.48 1017.57 1017.68 1017.80 1017.93 1018.05 1018.16 1018.27 1018.38 1018.50 1018.63 1018.77 1018.91 1019.06 1019.21 1019.36 1019.51 1019.66 1019.80 1019.96 1020.12 1020.29 1020.47 1020.66 1020.84 1021.01 1021.16 1021.28 1021.37 1021.44 1021.48 1021.49 1021.47
1018.61 1018.39 1018.15 1017.91 1017.67 1017.46 1017.29 1017.17 1017.09 1017.07 1017.09 1017.13 1017.19 1017.24 1017.29 1017.33 1017.37 1017.41 1017.46 1017.53 1017.62 1017.74 1017.88 1018.03 1018.19 1018.35 1018.50 1018.64 1018.77 1018.90 1019.04 1019.18 1019.33 1019.50 1019.68 1019.87 1020.06 1020.24 1020.41 1020.57 1020.70 1020.81 1020.88
1018.94 1018.61 1018.27 1017.95 1017.65 1017.39 1017.18 1017.02 1016.91 1016.85 1016.82 1016.79 1016.77 1016.73 1016.68 1016.61 1016.54 1016.48 1016.45 1016.45 1016.50 1016.59 1016.72 1016.87 1017.05 1017.22 1017.39 1017.54 1017.68 1017.82 1017.94 1018.08 1018.23 1018.40 1018.59 1018.80 1019.02 1019.26 1019.49 1019.71 1019.91 1020.08 1020.21
1019.28 1018.88 1018.48 1018.10 1017.76 1017.46 1017.21 1017.02 1016.87 1016.75 1016.64 1016.53 1016.40 1016.24 1016.06 1015.87 1015.67 1015.50 1015.37 1015.29 1015.28 1015.33 1015.45 1015.61 1015.79 1015.99 1016.19 1016.38 1016.55 1016.70 1016.86 1017.01 1017.18 1017.37 1017.58 1017.82 1018.08 1018.35 1018.62 1018.88 1019.12 1019.32 1019.47
1019.65 1019.21 1018.77 1018.36 1017.99 1017.66 1017.38 1017.13 1016.92 1016.73 1016.52 1016.30 1016.04 1015.74 1015.42 1015.09 1014.76 1014.47 1014.23 1014.07 1014.00 1014.01 1014.10 1014.25 1014.45 1014.68 1014.91 1015.13 1015.34 1015.55 1015.74 1015.94 1016.15 1016.38 1016.64 1016.91 1017.20 1017.50 1017.79 1018.07 1018.31 1018.51 1018.67
1020.04 1019.58 1019.13 1018.70 1018.30 1017.93 1017.60 1017.29 1016.99 1016.70 1016.38 1016.02 1015.63 1015.19 1014.73 1014.26 1013.81 1013.41 1013.07 1012.83 1012.69 1012.65 1012.71 1012.84 1013.04 1013.28 1013.53 1013.79 1014.05 1014.30 1014.55 1014.81 1015.08 1015.36 1015.67 1015.98 1016.31 1016.63 1016.93 1017.21 1017.45 1017.64 1017.78
1020.40 1019.95 1019.49 1019.05 1018.61 1018.20 1017.79 1017.40 1017.00 1016.58 1016.14 1015.65 1015.12 1014.56 1013.98 1013.40 1012.84 1012.34 1011.93 1011.61 1011.40 1011.31 1011.31 1011.41 1011.58 1011.80 1012.06 1012.33 1012.62 1012.92 1013.22 1013.54 1013.87 1014.22 1014.57 1014.94 1015.30 1015.65 1015.97 1016.25 1016.49 1016.67 1016.81
1020.70 1020.25 1019.79 1019.32 1018.84 1018.36 1017.88 1017.38 1016.87 1016.33 1015.76 1015.15 1014.51 1013.85 1013.17 1012.51 1011.89 1011.33 1010.84 1010.46 1010.19 1010.03 1009.97 1010.00 1010.11 1010.28 1010.50 1010.76 1011.05 1011.36 1011.70 1012.07 1012.45 1012.86 1013.27 1013.69 1014.10 1014.48 1014.83 1015.13 1015.39 1015.59 1015.73
1020.87 1020.43 1019.96 1019.46 1018.92 1018.37 1017.78 1017.18 1016.55 1015.90 1015.22 1014.52 1013.80 1013.07 1012.35 1011.65 1010.99 1010.39 1009.87 1009.43 1009.09 1008.85 1008.70 1008.63 1008.65 1008.73 1008.88 1009.09 1009.35 1009.65 1010.00 1010.39 1010.82 1011.27 1011.74 1012.22 1012.68 1013.11 1013.51 1013.85 1014.15 1014.39 1014.59
1020.88 1020.43 1019.94 1019.39 1018.80 1018.16 1017.49 1016.79 1016.06 1015.32 1014.56 1013.80 1013.03 1012.28 1011.55 1010.84 1010.18 1009.56 1009.01 1008.52 1008.11 1007.77 1007.52 1007.33 1007.23 1007.20 1007.24 1007.36 1007.55 1007.82 1008.16 1008.56 1009.01 1009.50 1010.02 1010.55 1011.07 1011.57 1012.02 1012.44 1012.80 1013.12 1013.38
1020.69 1020.23 1019.71 1019.12 1018.47 1017.76 1017.01 1016.22 1015.42 1014.61 1013.80 1013.01 1012.23 1011.48 1010.76 1010.08 1009.42 1008.81 1008.23 1007.70 1007.21 1006.78 1006.40 1006.08 1005.84 1005.67 1005.59 1005.61 1005.72 1005.93 1006.24 1006.63 1007.10 1007.62 1008.18 1008.77 1009.35 1009.92 1010.45 1010.95 1011.40 1011.81 1012.17
1020.33 1019.85 1019.29 1018.66 1017.95 1017.18 1016.37 1015.52 1014.67 1013.81 1012.98 1012.18 1011.41 1010.68 1009.99 1009.33 1008.69 1008.07 1007.47 1006.89 1006.32 1005.78 1005.28 1004.83 1004.45 1004.15 1003.95 1003.86 1003.90 1004.05 1004.32 1004.71 1005.18 1005.73 1006.34 1006.97 1007.62 1008.26 1008.88 1009.47 1010.02 1010.53 1010.99
1019.83 1019.31 1018.72 1018.05 1017.30 1016.49 1015.62 1014.73 1013.84 1012.96 1012.11 1011.31 1010.55 1009.84 1009.16 1008.51 1007.87 1007.24 1006.61 1005.96 1005.32 1004.68 1004.07 1003.50 1003.00 1002.60 1002.30 1002.13 1002.11 1002.23 1002.48 1002.86 1003.36 1003.94 1004.58 1005.27 1005.98 1006.69 1007.39 1008.06 1008.70 1009.31 1009.86
1019.23 1018.69 1018.06 1017.35 1016.57 1015.72 1014.81 1013.89 1012.96 1012.06 1011.19 1010.37 1009.61 1008.89 1008.20 1007.53 1006.87 1006.20 1005.52 1004.81 1004.09 1003.37 1002.67 1002.02 1001.44 1000.96 1000.61 1000.41 1000.37 1000.49 1000.75 1001.16 1001.68 1002.30 1002.99 1003.73 1004.49 1005.26 1006.03 1006.78 1007.50 1008.18 1008.82
1018.61 1018.02 1017.36 1016.62 1015.80 1014.90 1013.97 1013.00 1012.04 1011.09 1010.19 1009.33 1008.52 1007.76 1007.02 1006.31 1005.59 1004.86 1004.10 1003.33 1002.54 1001.76 1001.01 1000.31 999.71 999.22 998.88 998.70 998.68 998.84 999.16 999.62 1000.19 1000.86 1001.60 1002.39 1003.20 1004.03 1004.85 1005.65 1006.43 1007.17 1007.85
1017.98 1017.36 1016.66 1015.88 1015.01 1014.08 1013.09 1012.07 1011.05 1010.05 1009.08 1008.15 1007.27 1006.42 1005.60 1004.80 1003.99 1003.18 1002.35 1001.51 1000.67 999.85 999.08 998.39 997.81 997.37 997.09 996.98 997.06 997.30 997.70 998.24 998.89 999.62 1000.42 1001.25 1002.11 1002.97 1003.83 1004.67 1005.48 1006.25 1006.96
1017.38 1016.71 1015.96 1015.13 1014.22 1013.23 1012.19 1011.11 1010.02 1008.93 1007.87 1006.84 1005.85 1004.89 1003.96 1003.04 1002.14 1001.23 1000.32 999.43 998.56 997.73 996.99 996.35 995.84 995.49 995.32 995.33 995.53 995.89 996.40 997.03 997.77 998.57 999.42 1000.30 1001.19 1002.08 1002.95 1003.80 1004.63 1005.40 1006.11
1016.77 1016.05 1015.26 1014.38 1013.41 1012.37 1011.26 1010.11 1008.94 1007.76 1006.60 1005.46 1004.35 1003.27 1002.22 1001.19 1000.17 999.18 998.21 997.28 996.40 995.60 994.90 994.34 993.94 993.71 993.67 993.83 994.16 994.65 995.28 996.02 996.84 997.71 998.61 999.52 1000.43 1001.32 1002.20 1003.04 1003.86 1004.62 1005.31
Thickness
5714 5713 5711 5709 5707 5705 5703 5701 5699 5698 5697 5696 5695 5694 5693 5692 5691 5690 5689 5688 5687 5685 5683 5682 5680 5679 5678 5677 5676 5675 5673 5671 5667 5667 5670 5673 5674 5674 5675 5676 5677 5677 5678
5714 5712 5709 5707 5705 5702 5700 5699 5697 5696 5695 5694 5693 5691 5691 5690 5688 5687 5686 5685 5683 5681 5680 5679 5677 5677 5675 5673 5672 5671 5669 5668 5666 5663 5664 5666 5667 5668 5668 5668 5669 5670 5671
5713 5710 5707 5705 5703 5700 5699 5697 5695 5694 5692 5692 5691 5689 5688 5687 5685 5684 5684 5682 5680 5679 5677 5675 5673 5672 5670 5669 5668 5667 5666 5666 5663 5660 5659 5660 5660 5661 5661 5662 5662 5662 5663
5711 5709 5706 5704 5701 5699 5697 5695 5693 5692 5690 5689 5688 5687 5686 5684 5683 5681 5680 5678 5677 5675 5674 5672 5670 5669 5667 5666 5664 5662 5661 5659 5657 5655 5653 5653 5652 5653 5652 5652 5653 5653 5654
5710 5708 5706 5703 5701 5698 5695 5693 5692 5690 5689 5687 5685 5684 5683 5681 5680 5678 5676 5675 5672 5671 5669 5668 5667 5666 5665 5663 5661 5658 5656 5653 5650 5648 5646 5645 5644 5644 5643 5643 5643 5644 5646
5710 5707 5705 5702 5699 5696 5693 5691 5689 5688 5686 5685 5683 5681 5679 5679 5678 5676 5674 5671 5668 5666 5664 5663 5662 5661 5660 5659 5658 5656 5653 5649 5645 5642 5639 5637 5636 5636 5635 5635 5633 5632 5633
5708 5706 5703 5700 5698 5695 5693 5689 5687 5685 5683 5681 5679 5677 5676 5675 5674 5673 5671 5667 5664 5661 5659 5657 5657 5656 5654 5652 5651 5649 5647 5644 5642 5638 5634 5631 5630 5629 5627 5626 5624 5622 5622
5706 5703 5701 5698 5696 5693 5690 5687 5685 5682 5679 5677 5675 5674 5672 5671 5670 5669 5667 5663 5660 5657 5655 5653 5650 5649 5648 5645 5643 5641 5638 5636 5635 5632 5629 5626 5625 5623 5620 5618 5616 5614 5614
5703 5701 5699 5697 5693 5690 5687 5684 5682 5679 5676 5674 5672 5670 5667 5666 5666 5664 5662 5658 5654 5652 5650 5648 5645 5643 5642 5640 5636 5632 5630 5628 5627 5624 5622 5619 5617 5615 5612 5608 5605 5602 5601
5703 5701 5698 5695 5692 5688 5686 5682 5679 5676 5673 5670 5668 5666 5664 5662 5661 5659 5657 5652 5648 5645 5643 5642 5640 5638 5636 5633 5628 5624 5621 5619 5618 5616 5613 5610 5607 5604 5601 5597 5593 5589 5586
5702 5698 5695 5692 5689 5686 5683 5679 5675 5672 5669 5666 5663 5661 5659 5657 5656 5654 5651 5647 5643 5639 5636 5634 5632 5631 5628 5626 5622 5618 5615 5613 5609 5606 5603 5600 5597 5593 5590 5587 5582 5577 5573
5698 5694 5691 5688 5686 5683 5678 5675 5671 5667 5663 5660 5657 5655 5653 5652 5650 5649 5646 5643 5639 5634 5631 5629 5626 5624 5621 5618 5614 5611 5608 5604 5599 5595 5591 5588 5585 5582 5579 5576 5572 5567 5563
5693 5689 5686 5683 5680 5678 5674 5669 5665 5661 5658 5655 5651 5649 5648 5646 5644 5643 5641 5638 5634 5629 5626 5623 5620 5616 5612 5608 5605 5602 5598 5593 5588 5584 5580 5577 5574 5571 5568 5564 5561 5557 5553
5688 5684 5680 5677 5674 5671 5668 5665 5660 5656 5652 5650 5646 5644 5642 5640 5637 5635 5633 5630 5627 5623 5619 5615 5611 5607 5603 5599 5595 5591 5587 5582 5578 5574 5570 5567 5563 5559 5555 5551 5548 5544 5540
5682 5678 5675 5672 5668 5664 5662 5659 5656 5654 5651 5647 5643 5640 5636 5634 5634 5631 5627 5623 5619 5615 5610 5604 5599 5594 5591 5587 5584 5580 5577 5572 5568 5564 5559 5555 5552 5548 5544 5539 5535 5531 5526
5675 5672 5668 5664 5661 5657 5654 5651 5650 5647 5645 5643 5640 5636 5634 5631 5628 5624 5620 5617 5612 5607 5600 5594 5590 5585 5581 5578 5574 5571 5567 5563 5558 5554 5549 5544 5540 5536 5532 5528 5523 5519 5515
5670 5666 5662 5658 5654 5649 5646 5642 5639 5638 5636 5634 5632 5629 5626 5623 5620 5616 5612 5607 5603 5597 5589 5585 5581 5577 5573 5569 5565 5561 5557 5553 5548 5542 5537 5532 5528 5524 5520 5516 5512 5508 5505
5663 5660 5655 5651 5647 5643 5639 5636 5632 5629 5625 5624 5623 5620 5617 5614 5610 5606 5602 5596 5590 5585 5580 5576 5572 5568 5564 5559 5555 5551 5547 5542 5537 5531 5526 5521 5516 5511 5508 5504 5500 5496 5493
5653 5649 5646 5642 5639 5635 5631 5627 5624 5620 5617 5614 5611 5609 5607 5604 5600 5595 5590 5583 5579 5575 5571 5567 5563 5558 5554 5550 5545 5541 5536 5531 5526 5520 5515 5510 5505 5500 5496 5492 5489 5486 5482
5644 5642 5637 5633 5629 5625 5621 5617 5614 5610 5607 5604 5601 5598 5594 5589 5585 5582 5577 5572 5568 5565 5561 5557 5553 5548 5543 5539 5534 5529 5524 5519 5514 5509 5504 5499 5494 5489 5485 5481 5477 5473 5470
5633 5630 5628 5623 5618 5615 5611 5607 5604 5600 5596 5593 5591 5589 5584 5578 5575 5571 5566 5562 5557 5554 5550 5546 5541 5537 5532 5528 5523 5518 5513 5509 5503 5498 5493 5488 5483 5478 5474 5470 5466 5462 5459
5622 5619 5615 5611 5607 5603 5600 5596 5592 5588 5585 5582 5579 5576 5572 5567 5563 5559 5555 5552 5548 5543 5539 5534 5530 5525 5521 5516 5512 5507 5502 5498 5493 5487 5483 5478 5473 5468 5464 5460 5455 5451 5447
5611 5607 5603 5599 5595 5592 5587 5583 5579 5576 5573 5570 5566 5562 5559 5555 5551 5547 5544 5540 5536 5531 5526 5521 5517 5513 5509 5505 5500 5495 5490 5486 5482 5478 5472 5468 5463 5458 5453 5449 5446 5442 5439
5598 5594 5590 5586 5582 5578 5574 5570 5566 5563 5560 5557 5553 5550 5546 5542 5538 5535 5531 5527 5523 5519 5514 5509 5504 5501 5497 5493 5488 5484 5479 5476 5471 5467 5462 5457 5453 5448 5444 5440 5437 5434 5432
5584 5580 5576 5572 5568 5564 5560 5557 5553 5550 5547 5543 5540 5536 5532 5529 5525 5522 5518 5513 5509 5505 5501 5496 5491 5487 5484 5480 5477 5473 5469 5465 5460 5456 5452 5447 5444 5440 5436 5432 5430 5427 5426
5569 5565 5561 5557 5553 5550 5546 5543 5539 5536 5533 5530 5526 5523 5519 5515 5511 5507 5503 5499 5495 5491 5487 5483 5479 5475 5472 5469 5466 5462 5458 5455 5451 5446 5442 5438 5435 5432 5429 5426 5423 5421 5420